[[{"header":{"parameterUnit":"m.s-1","parameterCategory":2,"la1":30.2991,"la2":30.254,"lo1":-89.0895,"lo2":-89.0444,"dy":0.0017,"dx":0.0017,"nx":28,"ny":28,"refTime":"2024-08-17T09:00:00:Z","depth":"0","parameterNumber":2,"parameterNumberName":"U-component_of_CURRENTS"},"data":[0,0,0,0,0,0,0,0,0,0,0,0,0,0,0,0,0,0,0,0,0,0,0,0,0,0,0,0,0,0,0,0,0,0,0,0,0,0,0,0,0,0,0,0,0,0,0,0,0,0,0,0,0,0,0,0,0,0,0.3061,0.3061,0,0.3068,0.3068,0.3068,0.3043,0.3042,0.3042,0.3041,0.3078,0.3079,0.3081,0,0,0,0,0,0,0,0,0,0,0,0,0,0.3096,0.3095,0.3061,0.3061,0.3061,0.3068,0.3068,0.3068,0.3043,0.3042,0.3041,0.304,0.3077,0.3079,0.3081,0,0,0,0,0,0,0,0,0,0,0,0,0,0.309,0.3095,0.3061,0.3049,0.3047,0.3068,0.3068,0.3068,0.3044,0.3042,0.3041,0.304,0.3076,0.3079,0.3081,0.3123,0,0,0.3089,0.3091,0,0,0,0,0,0,0,0,0.3091,0.3089,0.305,0.3049,0.3048,0.3052,0.3094,0.3088,0.3044,0.3046,0.3041,0.3039,0.3072,0.3075,0.308,0.3125,0.3126,0.309,0.3091,0.3092,0.3093,0,0,0,0,0,0,0,0.3091,0.3089,0.3065,0.305,0.3049,0.3067,0.3064,0.3093,0.3068,0.3046,0.3044,0.3043,0.3072,0.3078,0.3081,0.3127,0.309,0.3092,0.3094,0.3095,0.3296,0.33,0,0,0,0,0,0,0.3086,0.3089,0.3064,0.3065,0.3066,0.3067,0.3064,0.3053,0.3067,0.3067,0.3045,0.3042,0.3074,0.3078,0.3082,0.319,0.3092,0.3095,0.3096,0.3293,0.3297,0.3301,0,0,0,0,0,0,0.3086,0.3083,0.3064,0.3077,0.3076,0.3067,0.3056,0.3054,0.3056,0.3065,0.3066,0.3047,0.3073,0.3079,0.3131,0.3189,0.3096,0.3098,0.3288,0.3294,0.3299,0.3369,0,0,0,0,0,0,0.3087,0.3083,0.3082,0.3076,0.3075,0.309,0.3057,0.3055,0.3057,0.3054,0.3068,0.307,0.3072,0.3127,0.3133,0.3191,0.3101,0.3283,0.3291,0.3297,0.3362,0.3377,0.3389,0,0,0,0,0,0.3088,0.3089,0.3081,0.3079,0.307,0.3091,0.3093,0.3083,0.3058,0.3076,0.3091,0.3069,0.3177,0.3132,0.3138,0.3198,0.328,0.3289,0.3297,0.3356,0.3374,0.3389,0,0,0,0,0,0,0.3104,0.3086,0.3078,0.3072,0.3088,0.3087,0.3098,0.3087,0.311,0.3107,0.3104,0.311,0.3189,0.3188,0.3137,0.3284,0.3231,0.3241,0.3274,0.3291,0.3304,0.3324,0.3103,0,0,0,0,0,0.3107,0.3102,0.3099,0.3101,0.3106,0.3103,0.3109,0.3106,0.312,0.3126,0.3142,0.3175,0.3233,0.3251,0.33,0.3362,0.339,0.3413,0.3427,0.3437,0.3463,0.3572,0.3597,0.3329,0.3329,0.3329,0,0,0.3112,0.3105,0.31,0.3105,0.3111,0.3148,0.3104,0.3121,0.3165,0.3131,0.3198,0.3224,0.3264,0.3349,0.3384,0.3348,0.3526,0.3448,0.3457,0.3477,0.3583,0.3609,0.3632,0.3335,0.3334,0.3333,0,0,0.3134,0.3117,0.3127,0.3149,0.3165,0.3177,0.3183,0.3197,0.3214,0.328,0.3283,0.3345,0.3408,0.346,0.3491,0.3611,0.3602,0.3622,0.3693,0.3797,0.382,0.384,0.3888,0.3912,0.3618,0.3618,0.3618,0,0.3145,0.3153,0.314,0.3173,0.3197,0.3194,0.3235,0.3269,0.3304,0.3339,0.3318,0.3457,0.3477,0.3596,0.364,0.3642,0.3677,0.3616,0.3813,0.3834,0.3853,0.3898,0.3924,0.3622,0.3622,0.3621,0.3621,0,0.3181,0.3202,0.3216,0.3257,0.3289,0.3323,0.3365,0.341,0.3429,0.3465,0.3578,0.3618,0.3699,0.3722,0.3715,0.3867,0.3837,0.3821,0.3762,0.3884,0.3923,0.3949,0.3629,0.3627,0.3626,0.3625,0,0,0.3167,0.3227,0.3234,0.327,0.3333,0.3361,0.3453,0.3533,0.3602,0.3659,0.3764,0.3859,0.3867,0.3906,0.391,0.3991,0.4143,0.3962,0.3965,0.3993,0.4344,0.4174,0.4184,0.4155,0.4161,0.4165,0.4307,0,0.3201,0.3269,0.3296,0.3385,0.3425,0.3472,0.356,0.3639,0.3711,0.3823,0.3886,0.3993,0.3942,0.3987,0.4066,0.4141,0.4217,0.4104,0.4238,0.4242,0.4063,0.4212,0.3932,0.4022,0.4331,0.4335,0.4338,0,0.3216,0.3269,0.3346,0.3445,0.3467,0.3531,0.366,0.3741,0.3897,0.3958,0.4067,0.412,0.4259,0.4199,0.4376,0.4304,0.434,0.4377,0.4383,0.4222,0.4121,0.3959,0.4056,0.3983,0.4377,0.4374,0.4371,0,0.3194,0.3295,0.3355,0.3392,0.3513,0.3567,0.3639,0.3779,0.3871,0.4056,0.4153,0.4293,0.4391,0.4479,0.4526,0.448,0.4709,0.4652,0.453,0.4516,0.4305,0.4262,0.4332,0.4799,0.4799,0.4799,0.4798,0,0.32,0.3251,0.3351,0.3392,0.3487,0.3566,0.3691,0.3788,0.3959,0.4084,0.4215,0.4337,0.4474,0.4594,0.4614,0.4643,0.4779,0.4582,0.4567,0.4316,0.4275,0.4219,0.4186,0.4804,0.4803,0.4802,0.4801,0,0.316,0.322,0.3303,0.3433,0.3475,0.3543,0.3706,0.3814,0.3965,0.4143,0.4213,0.4429,0.4563,0.4653,0.4811,0.4742,0.4649,0.4764,0.4426,0.4366,0.4118,0.4098,0.4015,0.3914,0.4658,0.4655,0.4652,0,0.3144,0.3183,0.3317,0.338,0.3441,0.3553,0.3648,0.3801,0.3916,0.4169,0.426,0.4458,0.4535,0.4684,0.4623,0.4626,0.4558,0.4379,0.4238,0.4102,0.4073,0.3943,0.3857,0.3989,0.3981,0.3975,0.397,0,0.3147,0.3189,0.3272,0.3385,0.3481,0.3579,0.3711,0.3795,0.3978,0.4096,0.4246,0.4323,0.4417,0.4289,0.4292,0.4259,0.4133,0.4244,0.4226,0.3665,0.3413,0.3305,0.3878,0.3914,0.3919,0.3923,0.3926,0.3929,0.3163,0.3206,0.3313,0.3402,0.3499,0.3582,0.3587,0.3722,0.3826,0.3893,0.4087,0.4047,0.4012,0.3943,0.3897,0.366,0.3727,0.3518,0.3541,0.3452,0.3237,0.3652,0.3586,0.3589,0.3592,0.3595,0.3598,0,0.3184,0.3238,0.3332,0.3412,0.3444,0.3511,0.3605,0.3552,0.3552,0.3633,0.365,0.355,0.3402,0.3361,0.3161,0.2996,0.287,0.294,0.2734,0.2716,0.3195,0.3047,0.2709,0.2709,0.2709,0.271,0.271,0.271,0.3221,0.3283,0.3304,0.3326,0.3348,0.3284,0.3269,0.3208,0.3194,0.3057,0.2929,0.2944,0.3014,0.291,0.2702,0.2619,0.2476,0.2264,0.2413,0.2782,0.2839,0.2893,0.275,0.2356,0.2355,0.1753,0.1748,0.1745]},{"header":{"parameterUnit":"m.s-1","parameterCategory":2,"la1":30.2991,"la2":30.254,"lo1":-89.0895,"lo2":-89.0444,"dy":0.0017,"dx":0.0017,"nx":28,"ny":28,"refTime":"2024-08-17T09:00:00:Z","depth":"0","parameterNumber":3,"parameterNumberName":"V-component_of_CURRENTS"},"data":[0,0,0,0,0,0,0,0,0,0,0,0,0,0,0,0,0,0,0,0,0,0,0,0,0,0,0,0,0,0,0,0,0,0,0,0,0,0,0,0,0,0,0,0,0,0,0,0,0,0,0,0,0,0,0,0,0,0,0.0251,0.0251,0,0.0221,0.0221,0.022,0.0193,0.0193,0.0192,0.0192,0.0177,0.0177,0.0177,0,0,0,0,0,0,0,0,0,0,0,0,0,0.0272,0.0272,0.0251,0.0251,0.025,0.0221,0.0221,0.022,0.0193,0.0193,0.0192,0.0192,0.0177,0.0177,0.0177,0,0,0,0,0,0,0,0,0,0,0,0,0,0.0255,0.0272,0.0251,0.0233,0.0231,0.0221,0.0221,0.022,0.0193,0.0193,0.0192,0.0192,0.0177,0.0177,0.0177,0.0186,0,0,0.0176,0.0176,0,0,0,0,0,0,0,0,0.0256,0.0254,0.0236,0.0234,0.0232,0.021,0.0222,0.0209,0.0193,0.0208,0.0192,0.0191,0.019,0.0189,0.0184,0.0185,0.0184,0.0176,0.0176,0.0176,0.0176,0,0,0,0,0,0,0,0.0257,0.0255,0.0239,0.0236,0.0233,0.0222,0.0219,0.022,0.0202,0.0206,0.0204,0.0201,0.0189,0.0184,0.0183,0.0184,0.0176,0.0176,0.0176,0.0176,0.0209,0.021,0,0,0,0,0,0,0.0262,0.0256,0.024,0.0238,0.0243,0.0222,0.0219,0.0218,0.0202,0.0199,0.0201,0.02,0.0184,0.0183,0.0183,0.022,0.0176,0.0176,0.0176,0.0208,0.0209,0.021,0,0,0,0,0,0,0.0263,0.0261,0.0241,0.0246,0.0243,0.0223,0.0221,0.0217,0.0215,0.0198,0.0195,0.0203,0.0184,0.0183,0.0192,0.0219,0.0176,0.0176,0.0207,0.0208,0.021,0.0278,0,0,0,0,0,0,0.0263,0.0261,0.0264,0.0247,0.0243,0.0244,0.0222,0.0217,0.0213,0.0211,0.0198,0.0196,0.0184,0.0192,0.0192,0.0218,0.0176,0.0206,0.0208,0.0209,0.0275,0.0282,0.0288,0,0,0,0,0,0.0264,0.0272,0.0265,0.0263,0.0247,0.0245,0.0243,0.0226,0.0214,0.022,0.0212,0.0197,0.0203,0.0193,0.0192,0.0219,0.0205,0.0207,0.0209,0.0272,0.028,0.0288,0,0,0,0,0,0,0.0278,0.0269,0.0261,0.0264,0.0259,0.0241,0.0244,0.0232,0.0229,0.0228,0.0209,0.0207,0.0224,0.0211,0.0201,0.0233,0.0202,0.0204,0.025,0.0258,0.0264,0.0295,0.0176,0,0,0,0,0,0.0283,0.029,0.0277,0.0281,0.0281,0.0264,0.0261,0.0251,0.0244,0.0241,0.0235,0.023,0.0233,0.0237,0.0234,0.0254,0.0248,0.027,0.0276,0.0282,0.0306,0.0318,0.0328,0.0217,0.0217,0.0217,0,0,0.0287,0.0286,0.0287,0.0285,0.0279,0.0299,0.0261,0.0263,0.0285,0.0242,0.0272,0.0253,0.0242,0.0263,0.027,0.0257,0.0307,0.0285,0.029,0.0311,0.0321,0.0332,0.0342,0.0219,0.0218,0.0218,0,0,0.0311,0.0301,0.032,0.0325,0.0324,0.0321,0.0325,0.0316,0.0318,0.0337,0.0313,0.0316,0.0319,0.0321,0.032,0.0364,0.0339,0.0355,0.0418,0.0429,0.0439,0.0447,0.0442,0.045,0.0361,0.0361,0.0361,0,0.0317,0.0343,0.0324,0.0351,0.0367,0.0338,0.0372,0.0372,0.0369,0.0385,0.0359,0.0376,0.0354,0.0393,0.04,0.0382,0.0375,0.0389,0.0439,0.0448,0.0455,0.0448,0.0455,0.0365,0.0364,0.0364,0.0364,0,0.0361,0.0385,0.0399,0.043,0.0442,0.0465,0.0468,0.0482,0.0478,0.048,0.051,0.0482,0.0499,0.0481,0.0453,0.0497,0.0469,0.0443,0.0422,0.0471,0.0459,0.0466,0.037,0.0369,0.0368,0.0367,0,0,0.0376,0.0422,0.0431,0.047,0.0491,0.0512,0.0552,0.0587,0.0633,0.0615,0.0681,0.0653,0.0634,0.0633,0.0596,0.0594,0.062,0.0543,0.0542,0.0544,0.0635,0.0577,0.0577,0.0599,0.0601,0.0603,0.0601,0,0.0423,0.0498,0.0506,0.0586,0.063,0.0631,0.068,0.0705,0.072,0.0776,0.0747,0.0789,0.0695,0.0713,0.0694,0.0653,0.0642,0.0622,0.0584,0.0583,0.053,0.0585,0.0571,0.0565,0.0607,0.0608,0.0609,0,0.0473,0.0523,0.0609,0.0691,0.071,0.0753,0.0839,0.0879,0.0929,0.0945,0.0964,0.0947,0.0956,0.087,0.082,0.081,0.0732,0.0679,0.0678,0.0611,0.0538,0.0525,0.0575,0.0482,0.0619,0.0618,0.0617,0,0.0518,0.06,0.0679,0.0706,0.0786,0.0832,0.0876,0.0932,0.1001,0.1067,0.1135,0.1111,0.1147,0.1046,0.0922,0.0882,0.0862,0.0795,0.0665,0.0659,0.0635,0.0624,0.06,0.0761,0.0761,0.0761,0.0761,0,0.0577,0.0642,0.071,0.0761,0.087,0.0898,0.102,0.1056,0.1151,0.1275,0.1233,0.1333,0.1195,0.1161,0.1001,0.0866,0.0924,0.0699,0.0667,0.0655,0.0646,0.0552,0.0464,0.0761,0.0761,0.0761,0.0761,0,0.0622,0.0662,0.0765,0.0862,0.0898,0.098,0.1115,0.1215,0.1281,0.145,0.149,0.1527,0.1482,0.1312,0.1176,0.0997,0.0775,0.078,0.0763,0.0729,0.049,0.0405,0.0325,0.0275,0.0641,0.064,0.0639,0,0.0655,0.0714,0.084,0.0916,0.0967,0.1088,0.1189,0.1275,0.1396,0.1582,0.1687,0.1702,0.1736,0.1498,0.1185,0.0904,0.0768,0.0697,0.0607,0.0499,0.0382,0.0329,0.029,0.0598,0.0597,0.0596,0.0595,0,0.0733,0.0774,0.0861,0.1009,0.1125,0.1267,0.1414,0.1528,0.1672,0.182,0.201,0.2053,0.1828,0.1557,0.1152,0.0941,0.0611,0.0664,0.0576,0.0373,0.0294,0.0224,0.0563,0.0586,0.0587,0.0587,0.0588,0.0588,0.0794,0.0866,0.0979,0.1119,0.1258,0.1442,0.1568,0.1748,0.1957,0.2176,0.2217,0.2277,0.1877,0.1326,0.1053,0.0546,0.0529,0.0379,0.0293,0.0258,0.0188,0.0492,0.0457,0.0458,0.0458,0.0458,0.0458,0,0.0872,0.0954,0.1088,0.1261,0.142,0.1482,0.1721,0.1868,0.2123,0.228,0.2419,0.2225,0.1746,0.1255,0.056,0.0242,0.0144,0.0083,0.0026,0.0009,0.0315,0.0291,0.0191,0.0191,0.0191,0.0191,0.0191,0.0191,0.0923,0.1048,0.1109,0.1363,0.1495,0.171,0.1849,0.2075,0.2221,0.2401,0.2393,0.2363,0.1998,0.0844,0.014,-0.0022,-0.0196,-0.0283,-0.0345,-0.0127,-0.0104,-0.0082,-0.012,-0.0305,-0.0306,-0.0588,-0.0591,-0.0594]}],[{"header":{"parameterUnit":"m.s-1","parameterCategory":2,"la1":30.2991,"la2":30.254,"lo1":-89.0895,"lo2":-89.0444,"dy":0.0017,"dx":0.0017,"nx":28,"ny":28,"refTime":"2024-08-17T09:00:00:Z","depth":"2","parameterNumber":2,"parameterNumberName":"U-component_of_CURRENTS"},"data":[0,0,0,0,0,0,0,0,0,0,0,0,0,0,0,0,0,0,0,0,0,0,0,0,0,0,0,0,0,0,0,0,0,0,0,0,0,0,0,0,0,0,0,0,0,0,0,0,0,0,0,0,0,0,0,0,0,0,0.2747,0.2747,0,0.2754,0.2754,0.2755,0.2743,0.2743,0.2742,0.2742,0.2754,0.2755,0.2756,0,0,0,0,0,0,0,0,0,0,0,0,0,0.277,0.277,0.2747,0.2747,0.2747,0.2754,0.2754,0.2755,0.2743,0.2743,0.2742,0.2742,0.2754,0.2755,0.2756,0,0,0,0,0,0,0,0,0,0,0,0,0,0.2767,0.277,0.2747,0.2742,0.2742,0.2754,0.2754,0.2755,0.2743,0.2743,0.2742,0.2742,0.2754,0.2755,0.2756,0.2775,0,0,0.2759,0.276,0,0,0,0,0,0,0,0,0.2768,0.2766,0.2743,0.2742,0.2742,0.2747,0.2767,0.2762,0.2744,0.2743,0.2742,0.2741,0.2753,0.2754,0.2757,0.2775,0.2776,0.2759,0.276,0.276,0.2761,0,0,0,0,0,0,0,0.2768,0.2766,0.275,0.2743,0.2742,0.2756,0.2755,0.2766,0.2751,0.2743,0.2742,0.2743,0.2752,0.2756,0.2757,0.2776,0.2759,0.276,0.2761,0.2761,0.2902,0.2905,0,0,0,0,0,0,0.2764,0.2766,0.275,0.275,0.2753,0.2756,0.2754,0.2746,0.2751,0.2751,0.2743,0.2742,0.2754,0.2756,0.2757,0.2837,0.276,0.2761,0.2762,0.2899,0.2903,0.2906,0,0,0,0,0,0,0.2765,0.2763,0.2749,0.2759,0.2758,0.2756,0.2747,0.2747,0.2755,0.2751,0.2751,0.2752,0.2754,0.2756,0.2793,0.2835,0.2762,0.2763,0.2895,0.29,0.2904,0.2961,0,0,0,0,0,0,0.2765,0.2762,0.2765,0.2758,0.2757,0.2772,0.2748,0.2747,0.2756,0.2755,0.2759,0.2759,0.2753,0.2792,0.2794,0.2836,0.2764,0.2891,0.2897,0.2903,0.2955,0.2967,0.2977,0,0,0,0,0,0.2766,0.2767,0.2764,0.2763,0.2757,0.2773,0.2775,0.2771,0.2757,0.2773,0.2783,0.2759,0.2831,0.2795,0.2797,0.284,0.2888,0.2896,0.2902,0.295,0.2965,0.2977,0,0,0,0,0,0,0.278,0.2766,0.2763,0.276,0.2774,0.2771,0.2784,0.2778,0.2797,0.2798,0.2787,0.279,0.2847,0.2841,0.2801,0.2904,0.2861,0.2869,0.2897,0.291,0.2921,0.2928,0.2764,0,0,0,0,0,0.2784,0.2781,0.278,0.2783,0.2789,0.2789,0.2796,0.2796,0.2806,0.2813,0.282,0.2841,0.2878,0.2889,0.292,0.296,0.2981,0.2997,0.3008,0.3017,0.3029,0.3117,0.3136,0.2929,0.2929,0.2929,0,0,0.2789,0.2784,0.2782,0.2787,0.2794,0.2814,0.2792,0.281,0.2834,0.2813,0.2855,0.288,0.2902,0.296,0.2985,0.2956,0.3087,0.3026,0.3033,0.304,0.3126,0.3146,0.3164,0.2933,0.2933,0.2932,0,0,0.2804,0.2798,0.2804,0.2817,0.2833,0.284,0.2848,0.286,0.2874,0.2916,0.2923,0.2967,0.3009,0.3037,0.3054,0.3143,0.3149,0.3168,0.3216,0.3301,0.3318,0.3334,0.3376,0.3394,0.3164,0.3164,0.3164,0,0.2816,0.2814,0.2814,0.283,0.2845,0.2853,0.2875,0.2898,0.2925,0.2952,0.2941,0.3047,0.3044,0.3132,0.3164,0.3164,0.3213,0.3154,0.3314,0.3329,0.3344,0.3383,0.3403,0.3168,0.3167,0.3167,0.3167,0,0.2833,0.284,0.2849,0.2869,0.2894,0.2914,0.2944,0.2983,0.3001,0.3022,0.3116,0.3142,0.3208,0.322,0.3211,0.333,0.333,0.3321,0.3271,0.3368,0.3403,0.3423,0.3173,0.3172,0.3171,0.317,0,0,0.2827,0.2854,0.2856,0.2874,0.2912,0.2934,0.2995,0.305,0.3103,0.3149,0.323,0.3289,0.332,0.3346,0.3365,0.3421,0.354,0.3422,0.3424,0.3447,0.3728,0.3561,0.3565,0.3578,0.3583,0.3586,0.3705,0,0.2839,0.2869,0.2884,0.2929,0.2947,0.2989,0.3046,0.3104,0.3166,0.3252,0.3303,0.3385,0.3367,0.3417,0.3482,0.3553,0.3599,0.3508,0.3645,0.3648,0.3475,0.3585,0.3276,0.3343,0.3724,0.3727,0.3729,0,0.2837,0.2862,0.2899,0.2956,0.2971,0.3012,0.3118,0.3173,0.3292,0.3348,0.3454,0.35,0.3619,0.3574,0.3747,0.3707,0.3722,0.3744,0.375,0.3588,0.3518,0.3314,0.3364,0.3762,0.3759,0.3757,0.3755,0,0.2817,0.2865,0.2895,0.2912,0.2987,0.3035,0.3091,0.3203,0.3272,0.3427,0.3508,0.3648,0.3747,0.3825,0.3863,0.3841,0.4021,0.399,0.3843,0.383,0.3586,0.3544,0.408,0.408,0.408,0.4079,0.4079,0,0.2802,0.2824,0.2892,0.2912,0.2979,0.3035,0.3136,0.3221,0.3357,0.3451,0.3568,0.3672,0.3824,0.3923,0.3934,0.3958,0.4087,0.3874,0.3865,0.3594,0.3553,0.3927,0.3908,0.4084,0.4083,0.4082,0.4081,0,0.2757,0.2796,0.284,0.293,0.2968,0.3019,0.3153,0.3226,0.3368,0.3512,0.3566,0.3753,0.3878,0.3961,0.4086,0.4039,0.4062,0.4009,0.3655,0.3599,0.3797,0.3781,0.3904,0.3899,0.3895,0.3892,0.3889,0,0.273,0.2747,0.2849,0.2886,0.2929,0.3019,0.3084,0.3226,0.3298,0.3531,0.3584,0.3759,0.3822,0.3943,0.3894,0.3886,0.3971,0.357,0.3445,0.3809,0.3788,0.3777,0.3765,0.3154,0.3145,0.3138,0.3133,0,0.2698,0.2737,0.2779,0.2843,0.2914,0.3006,0.3103,0.3121,0.3285,0.3406,0.3518,0.3584,0.3693,0.3544,0.3534,0.348,0.3554,0.3423,0.3953,0.3221,0.3105,0.3083,0.3096,0.3071,0.3077,0.3081,0.3085,0.3087,0.2679,0.269,0.2743,0.2791,0.2873,0.2928,0.292,0.2997,0.3062,0.3122,0.3295,0.3293,0.3325,0.3139,0.3024,0.2936,0.3179,0.303,0.3051,0.308,0.2948,0.2828,0.2716,0.272,0.2724,0.2727,0.2729,0,0.2638,0.265,0.2687,0.2724,0.2734,0.2847,0.2884,0.2813,0.2768,0.2875,0.292,0.2685,0.2566,0.2593,0.2356,0.2328,0.2316,0.2228,0.2193,0.2256,0.2312,0.214,0.1695,0.1692,0.1689,0.1686,0,0,0.262,0.261,0.2608,0.2573,0.2595,0.2571,0.2544,0.2461,0.2455,0.2355,0.2326,0.2486,0.2545,0.2113,0.2029,0.1823,0.2035,0.1747,0.2581,0.2607,0.2659,0.2778,0.2584,0,0,0,0,0]},{"header":{"parameterUnit":"m.s-1","parameterCategory":2,"la1":30.2991,"la2":30.254,"lo1":-89.0895,"lo2":-89.0444,"dy":0.0017,"dx":0.0017,"nx":28,"ny":28,"refTime":"2024-08-17T09:00:00:Z","depth":"2","parameterNumber":3,"parameterNumberName":"V-component_of_CURRENTS"},"data":[0,0,0,0,0,0,0,0,0,0,0,0,0,0,0,0,0,0,0,0,0,0,0,0,0,0,0,0,0,0,0,0,0,0,0,0,0,0,0,0,0,0,0,0,0,0,0,0,0,0,0,0,0,0,0,0,0,0,0.0125,0.0124,0,0.0097,0.0096,0.0096,0.0073,0.0073,0.0073,0.0072,0.005,0.0049,0.0049,0,0,0,0,0,0,0,0,0,0,0,0,0,0.0144,0.0144,0.0125,0.0124,0.0124,0.0097,0.0096,0.0096,0.0073,0.0073,0.0073,0.0072,0.005,0.0049,0.0049,0,0,0,0,0,0,0,0,0,0,0,0,0,0.0127,0.0143,0.0125,0.0109,0.0108,0.0097,0.0096,0.0096,0.0073,0.0073,0.0073,0.0072,0.005,0.0049,0.0049,0.0052,0,0,0.0047,0.0047,0,0,0,0,0,0,0,0,0.0128,0.0127,0.0112,0.011,0.0109,0.0088,0.0095,0.0081,0.0073,0.0086,0.0072,0.0072,0.0063,0.0062,0.0057,0.0051,0.005,0.0047,0.0047,0.0046,0.0046,0,0,0,0,0,0,0,0.013,0.0128,0.0113,0.0112,0.011,0.0099,0.0096,0.0092,0.0077,0.0085,0.0083,0.0081,0.0062,0.0058,0.0056,0.005,0.0047,0.0046,0.0046,0.0046,0.0055,0.0056,0,0,0,0,0,0,0.0134,0.0129,0.0114,0.0113,0.0118,0.0099,0.0096,0.0095,0.0077,0.0074,0.0081,0.008,0.0059,0.0057,0.0055,0.008,0.0046,0.0046,0.0045,0.0055,0.0055,0.0056,0,0,0,0,0,0,0.0135,0.0134,0.0115,0.012,0.0117,0.0099,0.0098,0.0095,0.0093,0.0074,0.0071,0.0083,0.0058,0.0056,0.006,0.0078,0.0046,0.0045,0.0054,0.0055,0.0056,0.0116,0,0,0,0,0,0,0.0136,0.0134,0.0137,0.0121,0.0117,0.0118,0.0098,0.0094,0.0092,0.009,0.0075,0.0072,0.0058,0.0061,0.006,0.0077,0.0045,0.0053,0.0054,0.0055,0.0113,0.0119,0.0124,0,0,0,0,0,0.0137,0.0143,0.0137,0.0136,0.0121,0.0119,0.0116,0.0102,0.0092,0.0098,0.0088,0.0073,0.0067,0.0062,0.0059,0.0077,0.0053,0.0054,0.0055,0.0111,0.0118,0.0124,0,0,0,0,0,0,0.0149,0.0141,0.0134,0.0137,0.0132,0.0115,0.0118,0.0108,0.0103,0.0102,0.0082,0.008,0.0088,0.0074,0.0068,0.0082,0.0057,0.0058,0.01,0.0106,0.0111,0.0127,0.0044,0,0,0,0,0,0.0154,0.0161,0.0148,0.0152,0.0152,0.0137,0.0134,0.0125,0.0117,0.0114,0.0106,0.0096,0.0092,0.0092,0.0084,0.0096,0.0081,0.0104,0.0109,0.0114,0.0125,0.0124,0.013,0.0061,0.006,0.006,0,0,0.0158,0.0156,0.0158,0.0156,0.015,0.0163,0.0135,0.0136,0.015,0.0114,0.0133,0.0114,0.0098,0.0109,0.0111,0.01,0.0123,0.0115,0.012,0.0129,0.0126,0.0133,0.0139,0.0061,0.0061,0.0061,0,0,0.0177,0.017,0.0186,0.0189,0.0188,0.0183,0.0187,0.0178,0.0178,0.0188,0.0166,0.016,0.0157,0.0149,0.0144,0.0173,0.0149,0.0169,0.0214,0.0212,0.0218,0.0224,0.0204,0.0207,0.0175,0.0175,0.0175,0,0.0183,0.0203,0.019,0.021,0.0222,0.0197,0.0223,0.022,0.0215,0.0224,0.0204,0.0203,0.0177,0.0198,0.02,0.0186,0.0177,0.0193,0.022,0.0225,0.0229,0.0208,0.0211,0.0178,0.0178,0.0177,0.0177,0,0.0218,0.0237,0.0248,0.027,0.028,0.0296,0.0295,0.0305,0.0299,0.0294,0.0309,0.0278,0.0283,0.0265,0.0239,0.0261,0.0241,0.0226,0.0207,0.024,0.0215,0.0217,0.0182,0.0181,0.018,0.018,0,0,0.0234,0.0267,0.0274,0.0304,0.0317,0.0335,0.0361,0.0382,0.0415,0.0394,0.0436,0.0399,0.0382,0.0375,0.0344,0.0329,0.033,0.0293,0.0292,0.0279,0.0321,0.0271,0.0268,0.0326,0.0327,0.0327,0.0288,0,0.0271,0.0328,0.0333,0.0395,0.0428,0.0426,0.0462,0.0476,0.048,0.0513,0.0476,0.0497,0.0427,0.0437,0.0412,0.0368,0.034,0.0342,0.0287,0.0285,0.0241,0.027,0.0288,0.0252,0.0289,0.0289,0.0289,0,0.0312,0.035,0.0417,0.0479,0.0495,0.0529,0.0593,0.0622,0.0643,0.0649,0.0653,0.0625,0.0615,0.0545,0.0483,0.0494,0.0409,0.0353,0.035,0.0287,0.0239,0.0227,0.0253,0.0292,0.0291,0.0291,0.0291,0,0.0352,0.0413,0.0476,0.0496,0.0555,0.0595,0.0631,0.0665,0.0719,0.0746,0.079,0.0753,0.0773,0.0672,0.0543,0.0525,0.0459,0.0424,0.0291,0.0286,0.0282,0.0275,0.0359,0.0359,0.0359,0.0359,0.0359,0,0.0399,0.045,0.0505,0.0544,0.0638,0.0655,0.0756,0.0782,0.0845,0.0939,0.0875,0.0935,0.0808,0.0749,0.0598,0.0459,0.0504,0.0307,0.028,0.03,0.0296,0.0315,0.031,0.0358,0.0358,0.0358,0.0358,0,0.0438,0.0468,0.0551,0.0629,0.0663,0.0735,0.0851,0.0928,0.0969,0.1096,0.1118,0.11,0.1024,0.0856,0.0702,0.0556,0.0403,0.0325,0.0344,0.032,0.0213,0.0212,0.0198,0.0196,0.0195,0.0193,0.0192,0,0.0464,0.051,0.0621,0.0685,0.0728,0.0833,0.092,0.0991,0.1086,0.1203,0.1278,0.1236,0.1219,0.0957,0.0693,0.0429,0.0379,0.0254,0.0211,0.0225,0.0201,0.0202,0.0203,0.0226,0.0225,0.0224,0.0224,0,0.0522,0.0561,0.0634,0.0759,0.0863,0.0996,0.1123,0.1209,0.1322,0.1423,0.1526,0.1513,0.1277,0.1021,0.0649,0.0461,0.0299,0.023,0.0271,0.0255,0.0246,0.0223,0.0225,0.0218,0.0219,0.0219,0.0219,0.022,0.0571,0.0629,0.0725,0.0847,0.0975,0.1143,0.1251,0.139,0.155,0.1692,0.1676,0.1652,0.1371,0.0889,0.0577,0.0247,0.0265,0.0134,0.0139,0.0144,0.0146,0.0134,0.0085,0.0084,0.0084,0.0084,0.0084,0,0.0633,0.0699,0.0807,0.0964,0.1108,0.1177,0.1383,0.1488,0.1671,0.1774,0.1833,0.1543,0.1252,0.0911,0.0433,0.0146,0.0134,0.0036,0.0092,0.01,0.0106,0.0108,0.0035,0.0034,0.0033,0.0032,0,0,0.0669,0.0773,0.0824,0.1051,0.1169,0.137,0.1489,0.1641,0.1742,0.182,0.1801,0.1735,0.1344,0.0981,0.0595,0.0319,0.0272,0.0255,0.0325,0.0445,0.0455,0.0192,0.0207,0,0,0,0,0]}],[{"header":{"parameterUnit":"m.s-1","parameterCategory":2,"la1":30.2991,"la2":30.254,"lo1":-89.0895,"lo2":-89.0444,"dy":0.0017,"dx":0.0017,"nx":28,"ny":28,"refTime":"2024-08-17T09:00:00:Z","depth":"4","parameterNumber":2,"parameterNumberName":"U-component_of_CURRENTS"},"data":[0,0,0,0,0,0,0,0,0,0,0,0,0,0,0,0,0,0,0,0,0,0,0,0,0,0,0,0,0,0,0,0,0,0,0,0,0,0,0,0,0,0,0,0,0,0,0,0,0,0,0,0,0,0,0,0,0,0,0.1762,0.1762,0,0.1811,0.1811,0.1812,0.1858,0.1859,0.186,0.186,0.1907,0.1907,0.1908,0,0,0,0,0,0,0,0,0,0,0,0,0,0.172,0.172,0.1762,0.1762,0.1763,0.1811,0.1811,0.1812,0.1858,0.1859,0.186,0.1861,0.1906,0.1907,0.1908,0,0,0,0,0,0,0,0,0,0,0,0,0,0.1749,0.172,0.1761,0.1793,0.1796,0.1811,0.1811,0.1812,0.1858,0.1859,0.186,0.1861,0.1906,0.1907,0.1908,0.1892,0,0,0.1911,0.1911,0,0,0,0,0,0,0,0,0.1747,0.175,0.1788,0.1791,0.1795,0.1831,0.1814,0.1839,0.1858,0.1833,0.186,0.1862,0.1881,0.1884,0.1889,0.1894,0.1896,0.1911,0.1911,0.1911,0.1912,0,0,0,0,0,0,0,0.1745,0.1749,0.178,0.1788,0.1793,0.1809,0.1814,0.1819,0.1849,0.1835,0.1839,0.1846,0.1883,0.1888,0.1891,0.1897,0.1911,0.1911,0.1912,0.1912,0.1978,0.1979,0,0,0,0,0,0,0.174,0.1746,0.1778,0.1781,0.1775,0.1809,0.1814,0.1817,0.185,0.1856,0.1845,0.1848,0.1886,0.1889,0.1892,0.1958,0.1911,0.1912,0.1913,0.1977,0.1978,0.198,0,0,0,0,0,0,0.1739,0.1742,0.1776,0.1766,0.1772,0.1808,0.1811,0.1817,0.186,0.1858,0.1864,0.1886,0.1887,0.1891,0.1928,0.1957,0.1913,0.1913,0.1975,0.1977,0.1979,0.2037,0,0,0,0,0,0,0.1737,0.1741,0.1762,0.1766,0.1773,0.1808,0.181,0.1818,0.1861,0.1866,0.1893,0.1896,0.1888,0.1926,0.1928,0.1958,0.1914,0.1974,0.1976,0.1978,0.2033,0.204,0.2046,0,0,0,0,0,0.1735,0.175,0.1762,0.1768,0.1793,0.1809,0.1815,0.1843,0.1862,0.1885,0.1905,0.1898,0.1942,0.1928,0.193,0.196,0.1973,0.1975,0.1978,0.203,0.2039,0.2046,0,0,0,0,0,0,0.1746,0.1757,0.177,0.179,0.1811,0.1819,0.1849,0.1864,0.1897,0.1915,0.1912,0.1917,0.196,0.1952,0.1936,0.1986,0.1957,0.196,0.1996,0.2004,0.201,0.202,0.1915,0,0,0,0,0,0.1756,0.1774,0.1784,0.1808,0.1822,0.1843,0.1863,0.188,0.19,0.1918,0.1936,0.1953,0.1966,0.198,0.199,0.2016,0.2029,0.2037,0.2044,0.2049,0.206,0.211,0.2123,0.1989,0.1989,0.1989,0,0,0.1768,0.1778,0.179,0.1813,0.1835,0.1851,0.1859,0.1898,0.1917,0.1916,0.1965,0.1981,0.1979,0.2011,0.2029,0.2013,0.2095,0.2053,0.2058,0.2065,0.2115,0.2128,0.2139,0.1991,0.199,0.199,0,0,0.1784,0.1811,0.1827,0.1844,0.188,0.1889,0.1907,0.1936,0.1963,0.2003,0.2007,0.2047,0.2068,0.2074,0.2076,0.2125,0.213,0.213,0.2171,0.222,0.2232,0.2242,0.2278,0.2291,0.2131,0.2131,0.2131,0,0.1804,0.1813,0.1838,0.1853,0.187,0.1907,0.1923,0.195,0.1989,0.2015,0.203,0.2093,0.2096,0.2128,0.2146,0.2141,0.2168,0.214,0.223,0.2241,0.225,0.2284,0.2298,0.2134,0.2134,0.2134,0.2133,0,0.1811,0.1835,0.185,0.1876,0.19,0.1925,0.1954,0.1996,0.2039,0.2064,0.2134,0.2156,0.2196,0.2201,0.2188,0.2255,0.2251,0.2235,0.2211,0.2268,0.2299,0.2312,0.2139,0.2138,0.2137,0.2136,0,0,0.1805,0.1846,0.1854,0.1865,0.1914,0.1924,0.1975,0.2017,0.2063,0.2124,0.2185,0.2223,0.2267,0.2273,0.2279,0.2318,0.2406,0.2313,0.2314,0.235,0.252,0.2335,0.2332,0.2415,0.2418,0.242,0.2516,0,0.1806,0.1826,0.1852,0.1879,0.1889,0.1938,0.1978,0.2029,0.2093,0.2165,0.2219,0.2286,0.2284,0.2327,0.237,0.2398,0.2445,0.2382,0.2458,0.2461,0.2291,0.2341,0.2428,0.2525,0.2528,0.2531,0.2532,0,0.1791,0.1806,0.1831,0.1871,0.1885,0.1916,0.1992,0.2039,0.2144,0.2203,0.2295,0.2346,0.2428,0.2421,0.2523,0.2489,0.2519,0.2535,0.2539,0.2354,0.2299,0.2457,0.2556,0.2554,0.2552,0.2551,0.2549,0,0.1742,0.1785,0.1804,0.1817,0.1875,0.191,0.1962,0.206,0.2119,0.2253,0.2323,0.2422,0.2501,0.2556,0.2605,0.2583,0.2706,0.2673,0.2535,0.2523,0.2638,0.2625,0.2753,0.2753,0.2753,0.2753,0.2752,0,0.17,0.1717,0.179,0.1791,0.1829,0.1895,0.1973,0.2037,0.2167,0.2237,0.2358,0.243,0.2546,0.2622,0.2644,0.2627,0.2747,0.2552,0.2536,0.2658,0.2648,0.2647,0.2633,0.2756,0.2755,0.2755,0.2754,0,0.1626,0.168,0.1699,0.1772,0.1803,0.1836,0.1968,0.201,0.2165,0.2267,0.232,0.2475,0.2565,0.2647,0.2741,0.2663,0.267,0.2638,0.2776,0.2766,0.2446,0.2435,0.2482,0.2476,0.2471,0.2467,0.2464,0,0.1579,0.1587,0.1668,0.168,0.1716,0.1795,0.1832,0.1988,0.2046,0.2265,0.2287,0.2448,0.2525,0.2525,0.2614,0.2638,0.2607,0.2588,0.2496,0.2438,0.242,0.2416,0.2411,0.2456,0.2455,0.2454,0.2452,0,0.1483,0.1537,0.1552,0.1582,0.1619,0.1653,0.1739,0.1783,0.1961,0.2123,0.2211,0.2267,0.2362,0.242,0.2461,0.247,0.2577,0.2536,0.2545,0.2459,0.2408,0.2393,0.2395,0.2436,0.2438,0.244,0.2441,0,0.1417,0.1409,0.1447,0.1459,0.1503,0.1492,0.1558,0.1629,0.1725,0.198,0.2007,0.218,0.2343,0.2335,0.2371,0.2363,0.2316,0.222,0.2245,0.2264,0.2142,0.2042,0.1952,0,0,0,0,0,0.134,0.1317,0.1311,0.1317,0.1355,0.1384,0.1473,0.1552,0.1753,0.1755,0.1886,0.1967,0.2035,0.2131,0.2076,0.2246,0.2305,0.2167,0.2202,0.2342,0.2362,0.2234,0,0,0,0,0,0,0.1281,0.1282,0.1267,0.1203,0.1193,0.1211,0.1266,0.1382,0.1415,0.1633,0.1691,0.1844,0.1947,0.2064,0.2048,0.2069,0.2043,0.2282,0.2276,0.2331,0.2349,0.2365,0.224,0,0,0,0,0]},{"header":{"parameterUnit":"m.s-1","parameterCategory":2,"la1":30.2991,"la2":30.254,"lo1":-89.0895,"lo2":-89.0444,"dy":0.0017,"dx":0.0017,"nx":28,"ny":28,"refTime":"2024-08-17T09:00:00:Z","depth":"4","parameterNumber":3,"parameterNumberName":"V-component_of_CURRENTS"},"data":[0,0,0,0,0,0,0,0,0,0,0,0,0,0,0,0,0,0,0,0,0,0,0,0,0,0,0,0,0,0,0,0,0,0,0,0,0,0,0,0,0,0,0,0,0,0,0,0,0,0,0,0,0,0,0,0,0,0,0.006,0.006,0,0.0042,0.0042,0.0042,0.0027,0.0027,0.0027,0.0027,0.001,0.001,0.001,0,0,0,0,0,0,0,0,0,0,0,0,0,0.007,0.007,0.006,0.006,0.006,0.0042,0.0042,0.0042,0.0027,0.0027,0.0027,0.0027,0.001,0.001,0.001,0,0,0,0,0,0,0,0,0,0,0,0,0,0.0061,0.007,0.006,0.005,0.0049,0.0043,0.0042,0.0042,0.0027,0.0027,0.0027,0.0026,0.001,0.001,0.001,0.0011,0,0,0.0008,0.0008,0,0,0,0,0,0,0,0,0.0061,0.006,0.0052,0.0051,0.005,0.0037,0.004,0.0032,0.0027,0.0036,0.0027,0.0026,0.002,0.0018,0.0015,0.0011,0.001,0.0008,0.0008,0.0008,0.0008,0,0,0,0,0,0,0,0.0062,0.0061,0.0053,0.0052,0.0051,0.0043,0.0042,0.0038,0.0029,0.0035,0.0034,0.0032,0.0019,0.0016,0.0015,0.001,0.0008,0.0008,0.0008,0.0007,0.0014,0.0014,0,0,0,0,0,0,0.0065,0.0062,0.0054,0.0053,0.0055,0.0043,0.0041,0.0041,0.0029,0.0027,0.0032,0.0031,0.0017,0.0015,0.0014,0.0032,0.0008,0.0007,0.0007,0.0013,0.0014,0.0014,0,0,0,0,0,0,0.0065,0.0065,0.0054,0.0057,0.0055,0.0043,0.0043,0.0041,0.0041,0.0027,0.0025,0.0034,0.0016,0.0015,0.0018,0.003,0.0007,0.0007,0.0013,0.0013,0.0014,0.0057,0,0,0,0,0,0,0.0066,0.0065,0.0068,0.0057,0.0055,0.0057,0.0043,0.0041,0.004,0.0039,0.0028,0.0026,0.0016,0.0019,0.0018,0.0029,0.0006,0.0012,0.0013,0.0014,0.0055,0.0059,0.0062,0,0,0,0,0,0.0066,0.0072,0.0068,0.0067,0.0059,0.0057,0.0056,0.0046,0.004,0.0045,0.0038,0.0027,0.0023,0.0019,0.0018,0.0029,0.0012,0.0013,0.0014,0.0053,0.0058,0.0062,0,0,0,0,0,0,0.0074,0.007,0.0066,0.0069,0.0066,0.0055,0.0058,0.0051,0.0049,0.0048,0.0034,0.0032,0.0037,0.0028,0.0024,0.0033,0.0015,0.0015,0.0045,0.005,0.0053,0.0062,0.0006,0,0,0,0,0,0.0078,0.0084,0.0076,0.0079,0.008,0.007,0.0068,0.0063,0.0058,0.0056,0.0051,0.0044,0.004,0.0041,0.0034,0.0043,0.002,0.0048,0.0052,0.0055,0.0061,0.0038,0.004,0.0017,0.0017,0.0017,0,0,0.0081,0.0081,0.0082,0.0082,0.0079,0.0089,0.0069,0.007,0.0082,0.0055,0.0071,0.0056,0.0044,0.0051,0.0053,0.0046,0.0048,0.0056,0.0059,0.0063,0.0039,0.0041,0.0043,0.0018,0.0018,0.0018,0,0,0.0095,0.0091,0.0103,0.0106,0.0106,0.0103,0.0106,0.0101,0.0102,0.0112,0.0094,0.0089,0.0087,0.0081,0.0077,0.0098,0.0066,0.0093,0.0124,0.0101,0.0103,0.0104,0.0072,0.0069,0.0098,0.0098,0.0098,0,0.0099,0.0115,0.0105,0.0121,0.0131,0.0114,0.0134,0.0132,0.013,0.0136,0.0124,0.0117,0.0103,0.0112,0.0116,0.0107,0.0083,0.0109,0.0106,0.0107,0.0107,0.0074,0.0071,0.0101,0.01,0.01,0.01,0,0.0124,0.0139,0.0147,0.0165,0.0174,0.0187,0.0187,0.0195,0.0193,0.0189,0.0195,0.0172,0.0171,0.0161,0.0145,0.0145,0.0122,0.0111,0.0096,0.0112,0.0075,0.0072,0.0104,0.0103,0.0102,0.0102,0,0,0.0132,0.016,0.0166,0.019,0.0202,0.0216,0.0236,0.0252,0.0273,0.0257,0.0278,0.0258,0.0238,0.0232,0.0207,0.0184,0.0159,0.0151,0.0149,0.012,0.0099,0.0088,0.0082,0.0145,0.0144,0.0144,0.0069,0,0.0158,0.0201,0.0208,0.0257,0.0282,0.0284,0.0312,0.0322,0.0323,0.0336,0.0304,0.0312,0.0268,0.027,0.0238,0.0182,0.0153,0.018,0.0086,0.0083,0.0072,0.0079,0.0144,0.0066,0.0065,0.0065,0.0064,0,0.0185,0.0214,0.0266,0.0319,0.0332,0.0359,0.0405,0.0429,0.0432,0.0432,0.0419,0.039,0.0359,0.032,0.0228,0.0246,0.0179,0.0126,0.0122,0.0096,0.0066,0.0047,0.0057,0.0058,0.0058,0.0059,0.0059,0,0.0208,0.026,0.0308,0.0324,0.0375,0.0406,0.0437,0.0458,0.0496,0.0495,0.051,0.0457,0.0443,0.0352,0.0239,0.0234,0.0126,0.0109,0.0033,0.003,0.0043,0.0043,0.0044,0.0044,0.0044,0.0045,0.0045,0,0.0237,0.0278,0.0326,0.0355,0.043,0.0449,0.0525,0.0542,0.0576,0.0623,0.0566,0.0576,0.045,0.0372,0.0259,0.0134,0.0141,0.0039,0.0014,0.0062,0.0064,0.004,0.004,0.0042,0.0042,0.0043,0.0044,0,0.0257,0.0284,0.0349,0.0413,0.0445,0.0501,0.0597,0.0647,0.0666,0.0722,0.0727,0.0667,0.0563,0.0424,0.0271,0.0173,0.0047,-0.0001,0.0056,0.0035,-0.0042,-0.0039,-0.0089,-0.009,-0.0091,-0.0091,-0.0092,0,0.027,0.0303,0.0396,0.0447,0.0483,0.0572,0.0637,0.0692,0.0745,0.0777,0.0801,0.0723,0.066,0.0438,0.028,0.0063,0.003,-0.0043,-0.0041,-0.0035,-0.0054,-0.0049,-0.0045,-0.0093,-0.0093,-0.0094,-0.0094,0,0.0299,0.0332,0.0389,0.049,0.0571,0.0668,0.0758,0.0806,0.0865,0.0881,0.0868,0.0756,0.0634,0.0447,0.0277,0.012,0.0,-0.0052,-0.0052,-0.005,-0.0041,-0.0058,-0.0053,-0.0097,-0.0096,-0.0096,-0.0096,0,0.0327,0.0369,0.0443,0.0537,0.0639,0.0735,0.0784,0.0847,0.0904,0.0929,0.0918,0.0787,0.0712,0.0477,0.032,0.0164,0.0122,0.0063,0.0057,0.0058,0.0118,0.0152,0.0139,0,0,0,0,0,0.0354,0.0404,0.0484,0.0592,0.0691,0.0752,0.0855,0.0892,0.0944,0.0944,0.0938,0.0825,0.0602,0.0502,0.0346,0.029,0.0083,0.0099,0.0009,-0.0112,-0.0109,-0.0064,0,0,0,0,0,0,0.0374,0.0448,0.0485,0.0621,0.0696,0.0813,0.0879,0.0911,0.0913,0.0931,0.0816,0.0773,0.0553,0.0691,0.0338,0.0291,0.0209,-0.0001,-0.0005,-0.0114,-0.0111,-0.0108,-0.0061,0,0,0,0,0]}]]